NOAA 16 DEB, 41516

Orbit data source: Space-Track

NOAA 16 DEB, 41516 is space debris in SSO originally from a launch on Thu, 21 Sep 2000 UTC launched from the Air Force Western Test Range (AFWTR). Debris objects in space refer to the collection of defunct objects orbiting the Earth. Examples of debris include non-operational satellites, rocket bodies, and fragments generated from explosions, collisions, or faulty payload assembly.

Loading next visibility...
Identifier
41516, 2000-055MQ
Orbit
SSO
Country
Flag of USUS
Related business
Manufacturer
Unknown
Mission
Spacecraft
Bus & Motor
Unknown
Mass
Unknown
Launch date (UTC)
2000-09-21 (26 years ago)
Launch vehicle
Unknown
Launch site
Air Force Western Test Range (AFWTR)
Object type
Payload
Rocket body
Debris
Shape & HBR
Unknown shape, 0.1 m
Radar Cross Section
Medium (>0.1 m² and <1 m²)

Expand to show TLE details & history
Last TLE update: 3 days ago

TLE from 3 days ago
0 NOAA 16 DEB
1 41516U 00055MQ  26170.68523597  .00003482  00000-0  12087-2 0  9995
2 41516  98.6702 259.7291 0014774 141.5346 218.6895 14.36133413527005
Epoch: 2026-06-19T16:26Z
TLE epoch observation values (Epoch: 2026-06-19T16:26:44.387Z)
Latitude
-0.00009°
Longitude
105.1335°
Altitude
782.492 km
Speed
7.458 km/s
True Right ascension
17h 18m 54s
True Declination
0° 00' 00"
Sunlit
Object was in full shadow at epoch
Visualization orbit readout
Latitude
Unknown
Longitude
Unknown
Altitude
Unknown
Speed
Unknown
Apparent Right ascension
Unknown
Apparent Declination
Unknown
Sunlit
N/A
Visualization observer readout
Local Sidereal Time
21:35:30
Azimuth
Unknown
Elevation
Unknown
Doppler factor
Unknown
Orbital elements
Apogee altitude
778.996 km
Perigee altitude
757.879 km
Semi-major axis
7,146.574 km
Eccentricity
0.00148
Inclination
98.6702°
RAAN
259.7291°
Arg. of periapsis
141.5346°
True anomaly
218.58382°
Mean anomaly
218.6895°
Eccentric anomaly
218.63665°
Mean motion
3.5925 °/min
Orbital period
100.21 mins
BSTAR
0.0012087
Loading maneuver chart data...
Computing Atmospheric mass density...
Loading historical data...
Loading historical data...
Loading historical data...
Loading historical data...
Loading historical data...
Loading historical data...
Loading historical data...

Documentation

Showing up to 5 results
|